Content
SEND FEEDBACK

Daily
Averages
Monthly
Summary
Turkmenistan

ASHGABAT, TURKMENISTAN


Home > Asia > Turkmenistan
Elevation: 775 feet     Latitude: 37 58N     Longitude: 058 20E

WEATHER
 
SELECT A DAY
Number of Records: 177,426;   Date Range: 3/15/97 - 8/30/14
 
SHARE

PRINT THIS DATA

[ ← Previous Day ]
WEATHER ALMANAC - MARCH 29, 2013
[ Next Day → ]
[ °C ]   °F
Weather ElementAverageHighLow
Temperature67.1 °F78 °F (5:00 pm)56 °F (8:00 am)
Dewpoint42.9 °F50 °F (11:00 pm)39 °F (2:00 am)
Humidity40.6 %63 % (8:00 am)20 % (2:00 pm)
Barometer29.92 in29.98 in (9:00 am)29.88 in (2:00 am)
Wind Speed5.6 mph11.2 mph (5:00 pm)
Weather ElementAverage
Visibility6 mi
Wind DirectionSSE (170 °)

Weather ElementTotal
Precipitation---
Cooling Degree Days2 (Base 65)
Growing Degree Days17 (Base 50)
Averaged from 31 records on March 29, 2013
WEATHER CONDITIONS BREAKOUT
WIND DIRECTION BREAKOUT
WEATHER BY HOUR - MARCH 29, 2013
[ °C ]   °F
Local TimeTemperatureDewpointHumidityBarometerVisibilityWind DirectionWind SpeedGust SpeedPrecipitationEventsConditions
1:00 AM60.8 °F41.0 °F48 %29.89 in1.2 miNorthClear
2:00 AM65.0 °F39.0 °F27 %29.88 in6.0 miWSW (240°)2.2 mph
2:00 AM59.0 °F41.0 °F51 %29.89 in6.2 miSSW (200°)2.2 mphClear
3:00 AM57.2 °F42.8 °F59 %29.89 in6.2 miWest (280°)6.7 mphScattered Clouds
4:00 AM59.0 °F39.2 °F48 %29.92 in6.2 miWSW (250°)8.9 mphPartly Cloudy
5:00 AM58.0 °F42.0 °F44 %29.92 in6.0 miSW (220°)6.7 mphScattered Clouds
5:00 AM59.0 °F39.2 °F48 %29.92 in6.2 miSSW (200°)4.5 mphPartly Cloudy
6:00 AM57.2 °F41.0 °F55 %29.92 in6.2 miSW (220°)4.5 mphClear
7:00 AM57.2 °F41.0 °F55 %29.95 in6.2 miSouth (190°)4.5 mphPartly Cloudy
8:00 AM56.0 °F43.0 °F50 %29.96 in6.0 miSW (220°)2.2 mphClear
8:00 AM57.2 °F44.6 °F63 %29.95 in6.2 miWest (260°)4.5 mphPartly Cloudy
9:00 AM64.4 °F44.6 °F49 %29.98 in6.2 miWSW (250°)4.5 mphClear
10:00 AM68.0 °F46.4 °F46 %29.98 in6.2 miNNW (330°)4.5 mphPartly Cloudy
11:00 AM70.0 °F47.0 °F33 %29.96 in6.0 miNNW (330°)6.7 mphClear
11:00 AM71.6 °F44.6 °F38 %29.98 in6.2 miNNW (340°)4.5 mphPartly Cloudy
12:00 PM73.4 °F42.8 °F33 %29.95 in6.2 miNorth (350°)4.5 mphClear
1:00 PM75.2 °F41.0 °F29 %29.95 in6.2 miNorth (10°)4.5 mphClear
2:00 PM76.0 °F43.0 °F20 %29.93 in6.0 miENE (70°)8.9 mphClear
2:00 PM77.0 °F41.0 °F28 %29.92 in6.2 miESE (120°)8.9 mphPartly Cloudy
3:00 PM77.0 °F39.2 °F26 %29.92 in6.2 miEast (90°)8.9 mphPartly Cloudy
4:00 PM77.0 °F39.2 °F26 %29.89 in6.2 miEast (100°)8.9 mphPartly Cloudy
5:00 PM78.0 °F44.0 °F20 %29.88 in6.0 miEast (90°)11.2 mphScattered Clouds
5:00 PM77.0 °F41.0 °F28 %29.89 in6.2 miEast (90°)11.2 mphScattered Clouds
6:00 PM77.0 °F39.2 °F26 %29.89 in6.2 miEast (100°)8.9 mphMostly Cloudy
7:00 PM73.4 °F41.0 °F31 %29.89 in6.2 miESE (110°)6.7 mphMostly Cloudy
8:00 PM71.0 °F45.0 °F28 %29.88 in6.0 miESE (120°)4.5 mphScattered Clouds
8:00 PM68.0 °F42.8 °F40 %29.89 in6.2 miESE (120°)4.5 mphMostly Cloudy
9:00 PM66.2 °F46.4 °F49 %29.89 in6.2 miSSW (200°)4.5 mphMostly Cloudy
10:00 PM66.2 °F48.2 °F52 %29.89 in6.2 miVariable2.2 mphMostly Cloudy
11:00 PM64.0 °F50.0 °F51 %29.89 in6.0 miCalmOvercast
11:00 PM64.4 °F50.0 °F59 %29.89 in6.2 miVariable2.2 mphOvercast
Hourly data recorded from UTAA, located miles away from Ashgabat, Turkmenistan







STORIES FROM OUR PARTNERS